Location: Unspecified
(0.0000°N, 0.0000°E)
Time: 07:49:53
(UTC+00:00)

Tiros 1 despin weight - Pass Details

Date: 04 October 2023
Orbit: 583 x 627 km, 48.2° (Epoch: 05 December)

Event Time Altitude Azimuth Distance (km) Brightness Sun altitude
Rises 01:41:58 0° 354° (N) 2,782 - -61.5°
Reaches altitude 10° 01:45:29 10° 24° (NNE) 1,885 - -60.6°
Maximum altitude 01:47:21 13° 50° (NE) 1,725 - -60.1°
Drops below altitude 10° 01:49:14 10° 76° (ENE) 1,890 - -59.7°
Sets 01:52:44 0° 105° (ESE) 2,797 - -58.8°
